Location: La Coruña
(43.3623°N, 8.4115°W)
Time: 02:37:13
(UTC+01:00)

STARLINK-1103 - Pass Details

Date: 22 January 2020
Orbit: 529 x 531 km, 53.0° (Epoch: 17 February)

Event Time Altitude Azimuth Distance (km) Brightness Sun altitude
Rises 18:54:50 0° 269° (W) 2,648 8.6 -4.7°
Reaches altitude 10° 18:57:17 10° 282° (WNW) 1,758 7.2 -5.1°
Maximum altitude 19:00:44 28° 342° (NNW) 1,012 5.0 -5.7°
Drops below altitude 10° 19:04:11 10° 42° (NE) 1,752 5.6 -6.3°
Enters shadow 19:05:00 - 48° (NE) 2,037 5.9 -6.4°
